Weather Roundup
Issued by NWS Springfield, MO

Home | Current Version | Previous Version | Text Only | Print | Product List | Glossary On
Versions: 1 2 3 4 5 6 7 8 9 10 11 12 13 14 15 16 17 18 19 20 21 22 23 24 25 26 27 28 29 30 31 32 33 34 35 36 37 38 39 40 41 42 43 44 45 46 47 48 49 50
143
NZUS99 KSGF 251157
HRRSGF

HOURLY WEATHER
NATIONAL WEATHER SERVICE SPRINGFIELD MO
700 AM CDT THU AUG 25 2016

......SGF CWA......

CITY           SKY/WX    TMP DP  RH WIND       PRES   REMARKS
SPRINGFIELD    CLEAR     71  67  87 S8        30.09R
6HR MIN TEMP:  70; 6HR MAX TEMP:  75;

JOPLIN         CLEAR     70  66  87 S6        30.07R
6HR MIN TEMP:  70; 6HR MAX TEMP:  79;

WEST PLAINS    CLEAR     70  67  90 CALM      30.14R
6HR MIN TEMP:  69; 6HR MAX TEMP:  76;

BRANSON        PTCLDY    70  68  94 S6        30.13R

......SURROUNDING SGF CWA......

CITY           SKY/WX    TMP DP  RH WIND       PRES   REMARKS
CHANUTE        CLEAR     67  65  93 S7        30.03S
PARSONS        CLEAR     66  65  96 CALM      30.06R
COFFEYVILLE    PTCLDY    69  65  86 S7        30.05R
EMPORIA        LGT RAIN  69  67  93 SW8       30.05R
HARRISON AR    CLEAR     69  68  96 S5        30.14R

......KANSAS AND MISSOURI......

CITY           SKY/WX    TMP DP  RH WIND       PRES   REMARKS
KANSAS CTY INT CLOUDY    71  69  93 NE3       30.02S FOG
SEDALIA        CLEAR     69  67  93 S5        30.05R
ST JOSEPH      CLOUDY    70  68  93 NW5       30.03S
ST LOUIS       PTCLDY    76  67  73 S3        30.06S
WICHITA        MOCLDY    69  66  90 E7        30.03S
TOPEKA         TSTM      70  70 100 SE7       30.03R VSB 1
OLATHE         FOG       68  68 100 SE6       30.03S VSB<1/4

......TENNESSEE......

CITY           SKY/WX    TMP DP  RH WIND       PRES   REMARKS
MEMPHIS        NOT AVBL
NASHVILLE      PTCLDY    74  71  91 CALM      30.16R

......ARKANSAS.......

CITY           SKY/WX    TMP DP  RH WIND       PRES   REMARKS
FAYETTEVILLE   CLEAR     66  66 100 CALM      30.12R
FT SMITH       CLEAR     73  69  87 NE5       30.09R
LITTLE ROCK    MOCLDY    77  73  87 CALM      30.10R

......OKLAHOMA.......

CITY           SKY/WX    TMP DP  RH WIND       PRES   REMARKS
TULSA          PTCLDY    72  69  90 SE5       30.05R
PONCA CITY     CLEAR     74  68  81 S5        30.04R
MCALESTER      CLEAR     72  69  90 CALM      30.09R
OKLAHOMA CITY  PTCLDY    71  68  90 S7        30.07R

......IOWA............

CITY           SKY/WX    TMP DP  RH WIND       PRES   REMARKS
DES MOINES     NOT AVBL
QUAD CITIES    CLOUDY    72  69  90 W3        30.02R

......ILLINOIS........

CITY           SKY/WX    TMP DP  RH WIND       PRES   REMARKS
QUINCY         NOT AVBL
CHICAGO        CLOUDY    72  70  93 SW6       29.97R




USA.gov is the U.S. government's official web portal to all federal, state and local government web resources and services.